Regional Weather Roundup
Issued by NWS

Home | Current Version | Previous Version | Text Only | Print | Product List | Glossary Off
Versions: 1 2 3 4 5 6 7 8 9 10 11 12 13 14 15 16 17 18 19 20 21 22 23 24 25 26 27 28 29 30 31 32 33 34 35 36 37 38 39 40 41 42 43 44 45 46 47 48 49 50

000
ASUS43 KMKX 220411
RWRWI

WISCONSIN REGIONAL WEATHER ROUNDUP
NATIONAL WEATHER SERVICE MILWAUKEE/SULLIVAN WI
1100 PM CDT TUE OCT 21 2014

NOTE: "FAIR" INDICATES FEW OR NO CLOUDS BELOW 12,000 FEET WITH NO
SIGNIFICANT WEATHER AND/OR OBSTRUCTIONS TO VISIBILITY.

WIZ001-002-006>008-014>016-023>028-220500-
NORTHWEST WISCONSIN

CITY           SKY/WX    TMP DP  RH WIND       PRES   REMARKS
SUPERIOR ARPT  FAIR      34  34  99 CALM      30.23S
ASHLAND        CLEAR     31  30  96 CALM      30.25S FOG
HAYWARD        CLEAR     42  34  73 SE6       30.23S
SIREN          CLEAR     43  36  75 SE7       30.20S
CUMBERLAND     CLEAR     39  34  81 SE5       30.22S
RICE LAKE      CLEAR     42  36  76 SE9       30.24S
CHETEK         CLEAR     40  35  83 SE7       30.24S
LADYSMITH      CLEAR     40  34  79 SE3       30.27R
EAU CLAIRE     CLEAR     41  34  76 S3        30.24S
MENOMONIE      CLEAR     38  34  85 SE6       30.24S WCI  34
NEW RICHMOND   CLEAR     43  36  75 SE7       30.20S
OSCEOLA        CLEAR     44  37  74 SE8       30.22S
$$

WIZ003>005-009-010-017-018-220500-
NORTH CENTRAL WISCONSIN

CITY           SKY/WX    TMP DP  RH WIND       PRES   REMARKS
MANITOWISH WTR CLEAR     28  28 100 CALM      30.25S
ARBOR VITAE    CLEAR     37  34  90 SE6       30.25S WCI  32
WOODRUFF       CLEAR     37  34  90 SE6       30.25S WCI  32
RHINELANDER    CLEAR     35  29  78 SE3       30.27R
EAGLE RIVER    CLEAR     31  30  96 CALM      30.26S
LAND O LAKES   CLEAR     29  28  96 CALM      30.28R
PHILLIPS       CLEAR     31  30  96 CALM      30.24S
TOMAHAWK       CLEAR     31  30  96 CALM      30.27S
MEDFORD        CLEAR     32  32  98 CALM      30.26S
MERRILL        CLEAR     29  28  96 CALM      30.27R
$$

WIZ029-030-035-036-043>047-220500-
CENTRAL WISCONSIN

CITY           SKY/WX    TMP DP  RH WIND       PRES   REMARKS
WAUSAU         CLEAR     37  32  82 E5        30.27R WCI  33
MOSINEE        CLEAR     36  32  87 E5        30.28R WCI  32
MARSHFIELD     CLEAR     39  34  82 S3        30.27R
STEVENS POINT  CLEAR     30  28  94 CALM      30.28S
WAUPACA        CLEAR     34  32  93 CALM      30.29S
WAUTOMA        PTCLDY    30  28  92 CALM      30.30R
WISC RAPIDS    CLEAR     36  33  89 SE6       30.29R WCI  31
CAMP DOUGLAS   CLEAR     30  30 100 CALM      30.27R
$$

WIZ011>013-019>022-031-037>040-048>050-220500-
NORTHEAST WISCONSIN

CITY           SKY/WX    TMP DP  RH WIND       PRES   REMARKS
ANTIGO         CLEAR     35  32  90 SE6       30.29R WCI  30
SHAWANO        CLEAR     39  36  87 CALM      30.31R
OCONTO         CLEAR     32  32 100 CALM      30.31R
STURGEON BAY   CLEAR     39  34  81 NE5       30.30S
GREEN BAY      CLEAR     34  33  96 CALM      30.30R
MANITOWOC      CLEAR     35  34  96 CALM      30.30S
APPLETON       CLEAR     39  32  75 VRB5      30.29R
CLINTONVILLE   CLEAR     32  30  93 CALM      30.30R
OSHKOSH        CLEAR     36  34  92 CALM      30.28S
$$

WIZ032>034-041-042-053>061-220500-
SOUTHWEST WISCONSIN

CITY           SKY/WX    TMP DP  RH WIND       PRES   REMARKS
LA CROSSE      CLEAR     45  36  70 E3        30.26R
SPARTA         CLEAR     32  32  99 CALM      30.28R
VIROQUA        CLEAR     38  35  90 SE5       30.26R WCI  34
BOSCOBEL       CLEAR     36  32  85 CALM      30.29R FOG
PRAIRIE DU CHI CLEAR     43  36  76 SE5       30.26S
PLATTEVILLE    CLEAR     38  35  88 CALM      30.28R
$$

WIZ056-057-062-063-064-067-068-220500-
SOUTH CENTRAL WISCONSIN

CITY           SKY/WX    TMP DP  RH WIND       PRES   REMARKS
REEDSBURG      CLEAR     33  33  97 CALM      30.28R
BARABOO/DELLS  CLEAR     33  32  96 CALM      30.27S
LONE ROCK      CLEAR     36  30  79 E3        30.28R
MINERAL POINT  CLEAR     39  36  87 E3        30.26R
MADISON        CLEAR     33  31  92 CALM      30.29S FOG
MIDDLETON      CLEAR     33  33 100 CALM      30.28S
WATERTOWN      PTCLDY    30  30  99 CALM      30.28S FOG
MONROE         CLEAR     37  36  93 E5        30.27S WCI  34
JANESVILLE     CLEAR     36  34  93 CALM      30.28S
$$

WIZ051-052-058>065-066-070>072-220500-
SOUTHEAST WISCONSIN

CITY           SKY/WX    TMP DP  RH WIND       PRES   REMARKS
MILWAUKEE      CLEAR     44  36  73 NE9       30.27F
WAUKESHA       CLEAR     34  32  93 CALM      30.29S
MILWAUKEE/TIMM CLEAR     34  32  93 NW3       30.28S
RACINE         CLEAR     43  37  79 NE7       30.28F
BURLINGTON     PTCLDY    29  29 100 CALM      30.28S FOG
KENOSHA        MOCLDY    36  34  92 CALM      30.27S
FOND DU LAC    CLEAR     34  32  92 CALM      30.29R
SHEBOYGAN      CLEAR     33  31  92 CALM      30.28F
WEST BEND      CLEAR     32  30  93 CALM      30.28S FOG
JUNEAU         PTCLDY    34  33  96 CALM      30.29S
$$

LSZ147-162-220500-
LAKE SUPERIOR

STATION/POSITION TIME  TEMP    WIND        PRES    WAVE
                       AIR SEA DIR/SP/G            HT/PER
                 (UTC) (F)     (DEG/KT/KT) (MB)    (FT/S)
W MID LAKE BUOY  0350   44 46  130/ 12/ 14 1025.4R   2/ 5
DEVILS ISLAND    0400   45     120/ 11/ 13 1024.8F
PORT WING        0300   40      CALM  /  3 1024.0R
SAXON HARBOR     0340   32        CALM     1024.0S
$$

LMZ867-665-643>646-220500-
LAKE MICHIGAN

STATION/POSITION TIME  TEMP    WIND        PRES    WAVE
                       AIR SEA DIR/SP/G            HT/PER
                 (UTC) (F)     (DEG/KT/KT) (MB)    (FT/S)
CHAMBERS ISLAND  0300   44      30/ 12/ 15 1026.4R
N MID LAKE BUOY  0350   46 51   90/ 10/ 14 1026.5S   2/ 4
NORTHPORT PIER   0300   42      30/  7/  9 1026.1R
SISTER BAY       0212           60/  4/  7   N/A
KEWAUNEE LAKESHO 0300   46      60/  6/ 10 1024.7R
SHEBOYGAN LAKESH 0400   47 49   60/ 15/ 16 1026.2S
PORT WASHINGTON  0300   42     340/  4/  6 1026.1S
ATWATER BUOY     0400   49      40/ 14/ 17 1025.7F
MILWAUKEE LAKESH 0300   48      40/ 14/ 17   N/A
S MID LAKE BUOY  0350   50 54   30/ 12/ 14 1024.9S   5/ 6
KENOSHA   LAKESH 0400   49      50/ 11/ 14 1024.7S
$$

TC  - TEMPERATURE IN CELSIUS
VSB - VISIBILITY IN STATUTE MILES
WCI - WIND CHILL INDEX
HX  - HEAT INDEX




USA.gov is the U.S. government's official web portal to all federal, state and local government web resources and services.